Вернуться в каталог

COSMOS 2115

АктивенВоенныеPO
NORAD 21029·PAYLOAD·🇷🇺 Russia

Запущен Dec 22, 1990 с Plesetsk Cosmodrome

Loading…

Ближайшие Пролёты (ближайшие 24 часа)

TLE

СвежийSource: Space-Track

Эпоха: Sep 14, 2026, 04:33 UTC

1 21029U 90114B   26257.18974414  .00000040  00000-0  16224-3 0  9991
2 21029  82.5714 154.7824 0004155  16.3374 150.2405 12.63534070647648

Отслеживайте COSMOS 2115 в реальном времени с AllMySat

Download on the App Store